This is the latest recevied weather packets stored in our database for station/object W4MLN-3. If no packets are shown the sender has not sent any weather packets the latest 10 day(s).
| Time | Temp. | Humidity | Pressure | Rain* | Wind** | Luminosity | Snow |
|---|---|---|---|---|---|---|---|
| 1777503924 | 17.78° C | 70% | 1009.7 hPa | 0 mm | - | - | - |
| 1777503603 | 17.78° C | 70% | 1009.8 hPa | 0 mm | - | - | - |
| 1777503303 | 18.33° C | 69% | 1009.7 hPa | 0 mm | - | - | - |
| 1777503003 | 18.33° C | 69% | 1009.8 hPa | 0 mm | - | - | - |
| 1777502703 | 18.33° C | 70% | 1009.9 hPa | 0 mm | - | - | - |
| 1777502403 | 18.33° C | 70% | 1009.7 hPa | 0 mm | - | - | - |
| 1777502124 | 18.33° C | 70% | 1009.5 hPa | 0 mm | - | - | - |
| 1777501824 | 18.33° C | 71% | 1009.7 hPa | 0 mm | - | - | - |
| 1777501503 | 18.89° C | 72% | 1009.5 hPa | 0 mm | - | - | - |
| 1777501203 | 18.89° C | 69% | 1009.5 hPa | 0 mm | - | - | - |
| 1777500903 | 18.89° C | 68% | 1009.6 hPa | 0 mm | - | - | - |
| 1777500603 | 18.89° C | 68% | 1009.5 hPa | 0 mm | - | - | - |
| 1777500304 | 18.89° C | 67% | 1009.5 hPa | 0 mm | - | - | - |
| 1777500003 | 18.89° C | 67% | 1009.5 hPa | 0 mm | - | - | - |
| 1777499703 | 19.44° C | 67% | 1009.5 hPa | 0 mm | - | - | - |
| 1777499404 | 18.89° C | 67% | 1009.6 hPa | 0 mm | - | - | - |
| 1777499124 | 18.89° C | 68% | 1009.5 hPa | 0 mm | - | - | - |
| 1777498803 | 18.89° C | 67% | 1009.7 hPa | 0 mm | - | - | - |
| 1777498503 | 18.89° C | 66% | 1009.8 hPa | 0 mm | - | - | - |
| 1777498205 | 19.44° C | 66% | 1010.1 hPa | 0 mm | - | - | - |
| 1777497903 | 19.44° C | 66% | 1009.9 hPa | 0 mm | - | - | - |
| 1777497625 | 20° C | 66% | 1010 hPa | 0 mm | - | - | - |
| 1777497325 | 20° C | 64% | 1009.8 hPa | 0 mm | - | - | - |
| 1777497003 | 20° C | 64% | 1009.9 hPa | 0 mm | - | - | - |
| 1777496724 | 20° C | 64% | 1009.7 hPa | 0 mm | - | - | - |
* Rain latest hour (hover to see other rain measurements)
** Current wind speed in m/s (hover to see current wind gust speed)